| time (UTC) | temp F | wind direction | speed MPH | gust MPH | rain 1hr in | rain 24hr in | rain mn in | humidity % | barometer mb |
| 20260509233205 | 64 | 354 | 3.0 | 7.0 | 0.00 | 0.00 | 0.00 | 65 | 1018.8 |
| 20260509232704 | 64 | 32 | 3.0 | 7.0 | 0.00 | 0.00 | 0.00 | 67 | 1018.9 |
| 20260509232205 | 64 | 349 | 3.0 | 6.0 | 0.00 | 0.00 | 0.00 | 66 | 1019.2 |
| 20260509231704 | 64 | 65 | 2.0 | 5.0 | 0.00 | 0.00 | 0.00 | 66 | 1019.2 |
| 20260509231204 | 64 | 46 | 2.0 | 5.0 | 0.00 | 0.00 | 0.00 | 68 | 1019.1 |
| 20260509230706 | 64 | 48 | 3.0 | 6.0 | 0.00 | 0.00 | 0.00 | 67 | 1019.2 |
| 20260509230204 | 64 | 48 | 4.0 | 7.0 | 0.00 | 0.00 | 0.00 | 68 | 1019.4 |
| 20260509225704 | 64 | 103 | 3.0 | 6.0 | 0.00 | 0.00 | 0.00 | 66 | 1019.5 |
| 20260509225205 | 64 | 121 | 1.0 | 3.0 | 0.00 | 0.00 | 0.00 | 67 | 1019.5 |
| 20260509224704 | 64 | 41 | 3.0 | 6.0 | 0.00 | 0.00 | 0.00 | 67 | 1019.6 |
| 20260509224206 | 64 | 40 | 3.0 | 6.0 | 0.00 | 0.00 | 0.00 | 64 | 1019.7 |
| 20260509223706 | 64 | 40 | 1.0 | 7.0 | 0.00 | 0.00 | 0.00 | 70 | 1019.7 |
| 20260509223205 | 64 | 94 | 3.0 | 6.0 | 0.00 | 0.00 | 0.00 | 70 | 1019.8 |
| 20260509222205 | 63 | 43 | 3.0 | 7.0 | 0.00 | 0.00 | 0.00 | 70 | 1020.0 |
| 20260509221204 | 63 | 96 | 1.0 | 5.0 | 0.00 | 0.00 | 0.00 | 71 | 1020.2 |
| 20260509220705 | 63 | 301 | 2.0 | 3.0 | 0.00 | 0.00 | 0.00 | 74 | 1020.3 |
| 20260509215704 | 62 | 18 | 2.0 | 3.0 | 0.00 | 0.00 | 0.00 | 73 | 1020.5 |
| 20260509214704 | 62 | 341 | 3.0 | 8.0 | 0.00 | 0.00 | 0.00 | 74 | 1020.5 |
| 20260509214203 | 62 | 37 | 3.0 | 8.0 | 0.00 | 0.00 | 0.00 | 75 | 1020.5 |
| 20260509213704 | 62 | 334 | 3.0 | 8.0 | 0.00 | 0.00 | 0.00 | 75 | 1020.6 |
| 20260509213203 | 62 | 338 | 3.0 | 8.0 | 0.00 | 0.00 | 0.00 | 76 | 1020.8 |
| 20260509211704 | 62 | 315 | 4.0 | 8.0 | 0.00 | 0.00 | 0.00 | 74 | 1020.8 |
| 20260509210704 | 62 | 336 | 2.0 | 3.0 | 0.00 | 0.00 | 0.00 | 76 | 1020.8 |
| 20260509205704 | 61 | 238 | 1.0 | 7.0 | 0.00 | 0.00 | 0.00 | 76 | 1020.9 |
| 20260509205204 | 61 | 285 | 5.0 | 8.0 | 0.00 | 0.00 | 0.00 | 76 | 1021.0 |
| 20260509204703 | 61 | 303 | 3.0 | 8.0 | 0.00 | 0.00 | 0.00 | 78 | 1021.1 |
| 20260509204204 | 60 | 294 | 3.0 | 10.0 | 0.00 | 0.00 | 0.00 | 79 | 1021.3 |
| 20260509203705 | 59 | 329 | 7.0 | 12.0 | 0.00 | 0.00 | 0.00 | 76 | 1021.3 |
| 20260509203204 | 59 | 313 | 5.0 | 12.0 | 0.00 | 0.00 | 0.00 | 77 | 1021.4 |
| 20260509202704 | 59 | 312 | 6.0 | 12.0 | 0.00 | 0.00 | 0.00 | 77 | 1021.3 |
| 20260509202204 | 60 | 315 | 6.0 | 10.0 | 0.00 | 0.00 | 0.00 | 76 | 1021.2 |
| 20260509201703 | 60 | 335 | 6.0 | 10.0 | 0.00 | 0.00 | 0.00 | 76 | 1021.3 |
| 20260509201205 | 59 | 336 | 3.0 | 7.0 | 0.00 | 0.00 | 0.00 | 77 | 1021.2 |
| 20260509200705 | 60 | 337 | 5.0 | 8.0 | 0.00 | 0.00 | 0.00 | 76 | 1021.2 |
| 20260509200204 | 60 | 333 | 5.0 | 8.0 | 0.00 | 0.00 | 0.00 | 76 | 1021.2 |
| 20260509195704 | 60 | 350 | 5.0 | 6.0 | 0.00 | 0.00 | 0.00 | 77 | 1021.0 |
| 20260509195206 | 60 | 9 | 4.0 | 8.0 | 0.00 | 0.00 | 0.00 | 77 | 1021.0 |
| 20260509194705 | 60 | 300 | 3.0 | 6.0 | 0.00 | 0.00 | 0.00 | 77 | 1021.2 |
| 20260509193706 | 60 | 324 | 5.0 | 9.0 | 0.00 | 0.00 | 0.00 | 77 | 1021.4 |
| 20260509193203 | 60 | 292 | 4.0 | 7.0 | 0.00 | 0.00 | 0.00 | 77 | 1021.5 |
| 20260509192703 | 60 | 331 | 4.0 | 8.0 | 0.00 | 0.00 | 0.00 | 78 | 1021.6 |
| 20260509192205 | 60 | 338 | 3.0 | 7.0 | 0.00 | 0.00 | 0.00 | 78 | 1021.6 |
| 20260509191204 | 59 | 351 | 5.0 | 12.0 | 0.00 | 0.00 | 0.00 | 78 | 1021.6 |
| 20260509190705 | 59 | 337 | 5.0 | 8.0 | 0.00 | 0.00 | 0.00 | 79 | 1021.7 |
| 20260509190204 | 59 | 337 | 3.0 | 6.0 | 0.00 | 0.00 | 0.00 | 79 | 1021.8 |
| 20260509185704 | 59 | 313 | 4.0 | 8.0 | 0.00 | 0.00 | 0.00 | 80 | 1021.8 |
| 20260509185205 | 59 | 307 | 3.0 | 7.0 | 0.00 | 0.00 | 0.00 | 79 | 1021.8 |
| 20260509184704 | 59 | 301 | 5.0 | 9.0 | 0.00 | 0.00 | 0.00 | 80 | 1021.8 |
| 20260509184203 | 59 | 325 | 5.0 | 9.0 | 0.00 | 0.00 | 0.00 | 80 | 1021.9 |
| 20260509183705 | 58 | 289 | 5.0 | 8.0 | 0.00 | 0.00 | 0.00 | 80 | 1021.8 |
| 20260509183203 | 59 | 308 | 5.0 | 9.0 | 0.00 | 0.00 | 0.00 | 81 | 1021.8 |
| 20260509182205 | 59 | 349 | 3.0 | 5.0 | 0.00 | 0.00 | 0.00 | 80 | 1021.7 |
| 20260509181205 | 59 | 14 | 3.0 | 9.0 | 0.00 | 0.00 | 0.00 | 80 | 1021.8 |
| 20260509180706 | 59 | 292 | 2.0 | 3.0 | 0.00 | 0.00 | 0.00 | 79 | 1021.8 |
| 20260509180205 | 59 | 0 | 3.0 | 8.0 | 0.00 | 0.00 | 0.00 | 80 | 1021.9 |
| 20260509175703 | 59 | 345 | 3.0 | 8.0 | 0.00 | 0.00 | 0.00 | 81 | 1021.9 |
| 20260509175205 | 58 | 349 | 3.0 | 8.0 | 0.00 | 0.00 | 0.00 | 80 | 1021.9 |
| 20260509174703 | 58 | 11 | 4.0 | 8.0 | 0.00 | 0.00 | 0.00 | 81 | 1022.1 |
| 20260509174205 | 58 | 330 | 5.0 | 8.0 | 0.00 | 0.00 | 0.00 | 80 | 1022.1 |
| 20260509173704 | 58 | 65 | 5.0 | 8.0 | 0.00 | 0.00 | 0.00 | 80 | 1022.1 |
| 20260509173205 | 58 | 348 | 4.0 | 9.0 | 0.00 | 0.00 | 0.00 | 80 | 1022.1 |
| 20260509172704 | 59 | 0 | 3.0 | 8.0 | 0.00 | 0.00 | 0.00 | 79 | 1022.1 |
| 20260509172204 | 58 | 342 | 3.0 | 6.0 | 0.00 | 0.00 | 0.00 | 80 | 1022.1 |
| 20260509171704 | 58 | 45 | 3.0 | 10.0 | 0.00 | 0.00 | 0.00 | 80 | 1022.0 |
| 20260509171204 | 58 | 11 | 3.0 | 7.0 | 0.00 | 0.00 | 0.00 | 80 | 1022.1 |
| 20260509170203 | 57 | 337 | 3.0 | 6.0 | 0.00 | 0.00 | 0.00 | 81 | 1022.2 |
| 20260509165703 | 57 | 42 | 3.0 | 8.0 | 0.00 | 0.00 | 0.00 | 80 | 1022.2 |
| 20260509165205 | 57 | 67 | 5.0 | 6.0 | 0.00 | 0.00 | 0.00 | 80 | 1022.2 |
| 20260509164205 | 57 | 79 | 5.0 | 8.0 | 0.00 | 0.00 | 0.00 | 81 | 1022.2 |
| 20260509163705 | 57 | 74 | 5.0 | 8.0 | 0.00 | 0.00 | 0.00 | 81 | 1022.3 |
| 20260509163203 | 57 | 26 | 3.0 | 7.0 | 0.00 | 0.00 | 0.00 | 81 | 1022.4 |
| 20260509162205 | 57 | 88 | 4.0 | 8.0 | 0.00 | 0.00 | 0.00 | 80 | 1022.3 |
| 20260509161204 | 57 | 73 | 3.0 | 7.0 | 0.00 | 0.00 | 0.00 | 81 | 1022.4 |
| 20260509160705 | 57 | 21 | 4.0 | 8.0 | 0.00 | 0.00 | 0.00 | 81 | 1022.4 |
| 20260509160205 | 57 | 38 | 2.0 | 5.0 | 0.00 | 0.00 | 0.00 | 81 | 1022.5 |
| 20260509155704 | 57 | 14 | 2.0 | 3.0 | 0.00 | 0.00 | 0.00 | 82 | 1022.4 |
| 20260509154704 | 56 | 43 | 3.0 | 5.0 | 0.00 | 0.00 | 0.00 | 82 | 1022.5 |
| 20260509154205 | 56 | 301 | 3.0 | 5.0 | 0.00 | 0.00 | 0.00 | 82 | 1022.6 |
| 20260509152704 | 56 | 54 | 2.0 | 3.0 | 0.00 | 0.00 | 0.00 | 83 | 1022.7 |
| 20260509152204 | 56 | 273 | 1.0 | 3.0 | 0.00 | 0.00 | 0.00 | 83 | 1022.7 |
| 20260509151704 | 56 | 274 | 0.0 | 2.0 | 0.00 | 0.00 | 0.00 | 84 | 1022.7 |
| 20260509151203 | 56 | 67 | 2.0 | 3.0 | 0.00 | 0.00 | 0.00 | 84 | 1022.8 |
| 20260509150704 | 55 | 51 | 2.0 | 3.0 | 0.00 | 0.00 | 0.00 | 86 | 1022.7 |
| 20260509150203 | 55 | 40 | 0.0 | 0.0 | 0.00 | 0.00 | 0.00 | 88 | 1022.7 |
| 20260509145206 | 53 | 175 | 0.0 | 0.0 | 0.00 | 0.00 | 0.00 | 91 | 1022.8 |
| 20260509144704 | 53 | 180 | 0.0 | 0.0 | 0.00 | 0.00 | 0.00 | 92 | 1022.8 |
| 20260509144203 | 52 | 180 | 0.0 | 0.0 | 0.00 | 0.00 | 0.00 | 93 | 1022.9 |
| 20260509143705 | 52 | 176 | 1.0 | 2.0 | 0.00 | 0.00 | 0.00 | 94 | 1022.9 |
| 20260509143204 | 51 | 146 | 0.0 | 1.0 | 0.00 | 0.00 | 0.00 | 94 | 1023.0 |
| 20260509142704 | 51 | 146 | 0.0 | 0.0 | 0.00 | 0.00 | 0.00 | 95 | 1023.0 |
| 20260509142205 | 50 | 146 | 0.0 | 0.0 | 0.00 | 0.00 | 0.00 | 95 | 1023.0 |
| 20260509141704 | 50 | 146 | 0.0 | 0.0 | 0.00 | 0.00 | 0.00 | 95 | 1022.9 |
| 20260509141203 | 50 | 146 | 0.0 | 0.0 | 0.00 | 0.00 | 0.00 | 95 | 1023.1 |
| 20260509140206 | 49 | 146 | 0.0 | 1.0 | 0.00 | 0.00 | 0.00 | 95 | 1023.1 |
| 20260509135704 | 49 | 65 | 0.0 | 0.0 | 0.00 | 0.00 | 0.00 | 95 | 1023.0 |
| 20260509135205 | 49 | 65 | 1.0 | 2.0 | 0.00 | 0.00 | 0.00 | 95 | 1023.0 |
| 20260509134704 | 49 | 194 | 0.0 | 0.0 | 0.00 | 0.00 | 0.00 | 95 | 1023.1 |
| 20260509134204 | 49 | 194 | 0.0 | 0.0 | 0.00 | 0.00 | 0.00 | 95 | 1023.1 |
| 20260509133705 | 49 | 194 | 0.0 | 0.0 | 0.00 | 0.00 | 0.00 | 95 | 1023.0 |
| 20260509132705 | 49 | 194 | 0.0 | 0.0 | 0.00 | 0.00 | 0.00 | 94 | 1023.2 |
| 20260509132205 | 48 | 194 | 0.0 | 1.0 | 0.00 | 0.00 | 0.00 | 94 | 1023.2 |
| 20260509131704 | 49 | 194 | 0.0 | 1.0 | 0.00 | 0.00 | 0.00 | 94 | 1023.0 |
| 20260509131204 | 49 | 194 | 0.0 | 0.0 | 0.00 | 0.00 | 0.00 | 94 | 1023.0 |
| 20260509130706 | 49 | 194 | 0.0 | 0.0 | 0.00 | 0.00 | 0.00 | 94 | 1023.0 |
| 20260509130204 | 49 | 194 | 0.0 | 0.0 | 0.00 | 0.00 | 0.00 | 94 | 1023.0 |
| 20260509125703 | 49 | 194 | 0.0 | 0.0 | 0.00 | 0.00 | 0.00 | 94 | 1023.0 |
| 20260509124703 | 49 | 194 | 0.0 | 0.0 | 0.00 | 0.00 | 0.00 | 94 | 1023.0 |
| 20260509123704 | 49 | 194 | 0.0 | 0.0 | 0.00 | 0.00 | 0.00 | 94 | 1023.0 |
| 20260509123204 | 49 | 194 | 0.0 | 0.0 | 0.00 | 0.00 | 0.00 | 94 | 1023.0 |
| 20260509122704 | 49 | 194 | 0.0 | 0.0 | 0.00 | 0.00 | 0.00 | 94 | 1022.9 |
| 20260509122206 | 49 | 194 | 0.0 | 0.0 | 0.00 | 0.00 | 0.00 | 94 | 1022.9 |
| 20260509121703 | 49 | 194 | 0.0 | 0.0 | 0.00 | 0.00 | 0.00 | 94 | 1023.0 |
| 20260509120705 | 49 | 194 | 0.0 | 0.0 | 0.00 | 0.00 | 0.00 | 94 | 1023.1 |
| 20260509120204 | 49 | 194 | 0.0 | 0.0 | 0.00 | 0.00 | 0.00 | 94 | 1023.1 |
| 20260509115705 | 49 | 194 | 0.0 | 0.0 | 0.00 | 0.00 | 0.00 | 94 | 1023.2 |
| 20260509115204 | 49 | 194 | 0.0 | 0.0 | 0.00 | 0.00 | 0.00 | 94 | 1023.2 |
| 20260509113706 | 49 | 194 | 0.0 | 0.0 | 0.00 | 0.00 | 0.00 | 95 | 1023.3 |
| 20260509112705 | 49 | 194 | 0.0 | 0.0 | 0.00 | 0.00 | 0.00 | 94 | 1023.3 |
| 20260509112204 | 49 | 194 | 0.0 | 0.0 | 0.00 | 0.00 | 0.00 | 94 | 1023.3 |
| 20260509111704 | 48 | 194 | 0.0 | 0.0 | 0.00 | 0.00 | 0.00 | 94 | 1023.3 |
| 20260509111205 | 48 | 194 | 0.0 | 0.0 | 0.00 | 0.00 | 0.00 | 94 | 1023.3 |
| 20260509110705 | 49 | 194 | 0.0 | 0.0 | 0.00 | 0.00 | 0.00 | 94 | 1023.4 |
| 20260509110204 | 49 | 194 | 0.0 | 1.0 | 0.00 | 0.00 | 0.00 | 94 | 1023.4 |
| 20260509105205 | 49 | 194 | 0.0 | 0.0 | 0.00 | 0.00 | 0.00 | 94 | 1023.3 |
| 20260509104704 | 49 | 194 | 0.0 | 0.0 | 0.00 | 0.00 | 0.00 | 94 | 1023.2 |
| 20260509104204 | 49 | 194 | 0.0 | 0.0 | 0.00 | 0.00 | 0.00 | 94 | 1023.1 |
| 20260509103204 | 49 | 194 | 0.0 | 0.0 | 0.00 | 0.00 | 0.00 | 94 | 1023.1 |
| 20260509102205 | 49 | 194 | 0.0 | 0.0 | 0.00 | 0.00 | 0.00 | 95 | 1023.1 |
| 20260509101705 | 48 | 194 | 0.0 | 0.0 | 0.00 | 0.00 | 0.00 | 94 | 1023.1 |
| 20260509101205 | 48 | 194 | 0.0 | 0.0 | 0.00 | 0.00 | 0.00 | 95 | 1023.0 |
| 20260509100706 | 48 | 194 | 0.0 | 0.0 | 0.00 | 0.00 | 0.00 | 95 | 1023.0 |
| 20260509100204 | 48 | 194 | 0.0 | 1.0 | 0.00 | 0.00 | 0.00 | 95 | 1023.0 |
| 20260509095705 | 48 | 194 | 0.0 | 0.0 | 0.00 | 0.00 | 0.00 | 95 | 1023.0 |
| 20260509095205 | 48 | 194 | 0.0 | 0.0 | 0.00 | 0.00 | 0.00 | 95 | 1023.0 |
| 20260509094704 | 48 | 194 | 0.0 | 0.0 | 0.00 | 0.00 | 0.00 | 95 | 1022.9 |
| 20260509094204 | 48 | 194 | 0.0 | 0.0 | 0.00 | 0.00 | 0.00 | 95 | 1023.0 |
| 20260509093705 | 48 | 194 | 0.0 | 0.0 | 0.00 | 0.00 | 0.00 | 95 | 1023.0 |
| 20260509093204 | 47 | 194 | 0.0 | 0.0 | 0.00 | 0.00 | 0.00 | 95 | 1023.0 |
| 20260509092704 | 47 | 194 | 0.0 | 0.0 | 0.00 | 0.00 | 0.00 | 95 | 1023.0 |
| 20260509092205 | 47 | 194 | 0.0 | 0.0 | 0.00 | 0.00 | 0.00 | 95 | 1023.1 |
| 20260509091704 | 46 | 194 | 0.0 | 0.0 | 0.00 | 0.00 | 0.00 | 95 | 1023.1 |
| 20260509091205 | 46 | 194 | 0.0 | 0.0 | 0.00 | 0.00 | 0.00 | 95 | 1023.1 |
| 20260509090705 | 46 | 194 | 0.0 | 0.0 | 0.00 | 0.00 | 0.00 | 95 | 1023.1 |
| 20260509090204 | 46 | 194 | 0.0 | 1.0 | 0.00 | 0.00 | 0.00 | 95 | 1023.1 |
| 20260509085704 | 46 | 194 | 0.0 | 0.0 | 0.00 | 0.00 | 0.00 | 95 | 1023.2 |
| 20260509084204 | 45 | 194 | 0.0 | 0.0 | 0.00 | 0.00 | 0.00 | 94 | 1023.3 |
| 20260509083705 | 44 | 194 | 0.0 | 0.0 | 0.00 | 0.00 | 0.00 | 94 | 1023.3 |
| 20260509083204 | 44 | 194 | 0.0 | 0.0 | 0.00 | 0.00 | 0.00 | 93 | 1023.3 |
| 20260509082704 | 44 | 194 | 0.0 | 0.0 | 0.00 | 0.00 | 0.00 | 92 | 1023.3 |
| 20260509082205 | 45 | 194 | 0.0 | 1.0 | 0.00 | 0.00 | 0.00 | 93 | 1023.4 |
| 20260509081704 | 45 | 194 | 0.0 | 2.0 | 0.00 | 0.00 | 0.00 | 94 | 1023.4 |
| 20260509081203 | 45 | 194 | 0.0 | 2.0 | 0.00 | 0.00 | 0.00 | 94 | 1023.4 |
| 20260509080706 | 45 | 235 | 0.0 | 0.0 | 0.00 | 0.00 | 0.00 | 93 | 1023.4 |
| 20260509080204 | 45 | 235 | 0.0 | 0.0 | 0.00 | 0.00 | 0.00 | 93 | 1023.4 |
| 20260509075204 | 45 | 235 | 0.0 | 0.0 | 0.00 | 0.00 | 0.00 | 93 | 1023.4 |
| 20260509074704 | 45 | 235 | 0.0 | 0.0 | 0.00 | 0.00 | 0.00 | 93 | 1023.4 |
| 20260509074204 | 45 | 235 | 0.0 | 0.0 | 0.00 | 0.00 | 0.00 | 93 | 1023.4 |
| 20260509073704 | 45 | 235 | 0.0 | 0.0 | 0.00 | 0.00 | 0.00 | 93 | 1023.4 |
| 20260509073204 | 45 | 235 | 0.0 | 0.0 | 0.00 | 0.00 | 0.00 | 93 | 1023.3 |
| 20260509072205 | 45 | 235 | 0.0 | 0.0 | 0.00 | 0.00 | 0.00 | 93 | 1023.3 |
| 20260509071703 | 45 | 235 | 0.0 | 0.0 | 0.00 | 0.00 | 0.00 | 92 | 1023.2 |
| 20260509071204 | 45 | 235 | 0.0 | 0.0 | 0.00 | 0.00 | 0.00 | 92 | 1023.2 |
| 20260509070705 | 45 | 235 | 0.0 | 0.0 | 0.00 | 0.00 | 0.00 | 92 | 1023.1 |
| 20260509070204 | 44 | 235 | 0.0 | 0.0 | 0.00 | 0.00 | 0.00 | 92 | 1023.2 |
| 20260509065704 | 44 | 235 | 0.0 | 0.0 | 0.00 | 0.00 | 0.00 | 91 | 1023.2 |
| 20260509065205 | 44 | 235 | 0.0 | 0.0 | 0.00 | 0.00 | 0.00 | 90 | 1023.2 |
| 20260509064705 | 45 | 235 | 0.0 | 0.0 | 0.00 | 0.00 | 0.00 | 90 | 1023.3 |
| 20260509064204 | 45 | 235 | 0.0 | 0.0 | 0.00 | 0.00 | 0.00 | 90 | 1023.2 |
| 20260509063705 | 46 | 235 | 0.0 | 0.0 | 0.00 | 0.00 | 0.00 | 91 | 1023.1 |
| 20260509063205 | 46 | 235 | 0.0 | 1.0 | 0.00 | 0.00 | 0.00 | 91 | 1023.2 |
| 20260509062205 | 46 | 218 | 1.0 | 3.0 | 0.00 | 0.00 | 0.00 | 90 | 1023.1 |
| 20260509061705 | 46 | 194 | 0.0 | 0.0 | 0.00 | 0.00 | 0.00 | 90 | 1023.1 |
| 20260509061204 | 46 | 194 | 0.0 | 0.0 | 0.00 | 0.00 | 0.00 | 90 | 1023.1 |
| 20260509060704 | 46 | 194 | 0.0 | 0.0 | 0.00 | 0.00 | 0.00 | 89 | 1023.1 |
| 20260509060204 | 46 | 194 | 0.0 | 0.0 | 0.00 | 0.00 | 0.00 | 89 | 1023.2 |
| 20260509055704 | 46 | 194 | 0.0 | 0.0 | 0.00 | 0.00 | 0.00 | 88 | 1023.1 |
| 20260509055205 | 47 | 194 | 0.0 | 0.0 | 0.00 | 0.00 | 0.00 | 89 | 1023.2 |
| 20260509054704 | 47 | 194 | 0.0 | 0.0 | 0.00 | 0.00 | 0.00 | 88 | 1023.2 |
| 20260509054206 | 47 | 194 | 0.0 | 0.0 | 0.00 | 0.00 | 0.00 | 87 | 1023.1 |
| 20260509053204 | 48 | 194 | 0.0 | 0.0 | 0.00 | 0.00 | 0.00 | 87 | 1023.1 |
| 20260509052704 | 48 | 194 | 0.0 | 0.0 | 0.00 | 0.00 | 0.00 | 86 | 1023.0 |
| 20260509051705 | 48 | 209 | 1.0 | 3.0 | 0.00 | 0.00 | 0.00 | 84 | 1023.1 |
| 20260509051204 | 50 | 202 | 2.0 | 3.0 | 0.00 | 0.00 | 0.00 | 83 | 1023.1 |
| 20260509050705 | 51 | 232 | 1.0 | 2.0 | 0.00 | 0.00 | 0.00 | 82 | 1023.1 |
| 20260509050203 | 52 | 257 | 1.0 | 2.0 | 0.00 | 0.00 | 0.00 | 82 | 1023.1 |
| 20260509045705 | 52 | 257 | 0.0 | 0.0 | 0.00 | 0.00 | 0.00 | 81 | 1023.1 |
| 20260509045204 | 52 | 257 | 1.0 | 1.0 | 0.00 | 0.00 | 0.00 | 81 | 1023.1 |
| 20260509044705 | 53 | 257 | 0.0 | 1.0 | 0.00 | 0.00 | 0.00 | 81 | 1023.1 |
| 20260509044204 | 53 | 257 | 1.0 | 2.0 | 0.00 | 0.00 | 0.00 | 81 | 1023.0 |
| 20260509043705 | 53 | 257 | 1.0 | 2.0 | 0.00 | 0.00 | 0.00 | 81 | 1023.0 |
| 20260509043204 | 53 | 257 | 2.0 | 3.0 | 0.00 | 0.00 | 0.00 | 81 | 1023.0 |
| 20260509042204 | 54 | 253 | 2.0 | 3.0 | 0.00 | 0.00 | 0.00 | 80 | 1022.9 |
| 20260509041704 | 54 | 259 | 2.0 | 3.0 | 0.00 | 0.00 | 0.00 | 79 | 1022.9 |
| 20260509041205 | 54 | 271 | 1.0 | 3.0 | 0.00 | 0.00 | 0.00 | 80 | 1022.8 |
| 20260509040704 | 54 | 224 | 2.0 | 3.0 | 0.00 | 0.00 | 0.00 | 79 | 1022.8 |
| 20260509040205 | 54 | 250 | 2.0 | 3.0 | 0.00 | 0.00 | 0.00 | 79 | 1022.8 |
| 20260509035205 | 55 | 244 | 2.0 | 6.0 | 0.00 | 0.00 | 0.00 | 78 | 1022.7 |
| 20260509034206 | 55 | 264 | 2.0 | 3.0 | 0.00 | 0.00 | 0.00 | 77 | 1022.7 |
| 20260509033706 | 55 | 269 | 3.0 | 6.0 | 0.00 | 0.00 | 0.00 | 77 | 1022.6 |
| 20260509033204 | 55 | 264 | 2.0 | 3.0 | 0.00 | 0.00 | 0.00 | 77 | 1022.6 |
| 20260509032704 | 55 | 253 | 2.0 | 5.0 | 0.00 | 0.00 | 0.00 | 76 | 1022.6 |
| 20260509031704 | 55 | 270 | 2.0 | 3.0 | 0.00 | 0.00 | 0.00 | 76 | 1022.5 |
| 20260509030706 | 55 | 273 | 2.0 | 3.0 | 0.00 | 0.00 | 0.00 | 77 | 1022.5 |
| 20260509030204 | 55 | 287 | 1.0 | 3.0 | 0.00 | 0.00 | 0.00 | 76 | 1022.5 |
| 20260509025705 | 55 | 278 | 2.0 | 3.0 | 0.00 | 0.00 | 0.00 | 76 | 1022.5 |
| 20260509025204 | 56 | 277 | 2.0 | 6.0 | 0.00 | 0.00 | 0.00 | 76 | 1022.5 |
| 20260509024204 | 56 | 274 | 3.0 | 6.0 | 0.00 | 0.00 | 0.00 | 75 | 1022.5 |
| 20260509023704 | 56 | 257 | 1.0 | 6.0 | 0.00 | 0.00 | 0.00 | 76 | 1022.3 |
| 20260509023205 | 56 | 264 | 3.0 | 8.0 | 0.00 | 0.00 | 0.00 | 75 | 1022.3 |
| 20260509022705 | 56 | 261 | 3.0 | 7.0 | 0.00 | 0.00 | 0.00 | 75 | 1022.3 |
| 20260509021703 | 56 | 291 | 3.0 | 6.0 | 0.00 | 0.00 | 0.00 | 75 | 1022.3 |
| 20260509021203 | 56 | 277 | 2.0 | 5.0 | 0.00 | 0.00 | 0.00 | 75 | 1022.3 |
| 20260509020704 | 56 | 282 | 2.0 | 3.0 | 0.00 | 0.00 | 0.00 | 74 | 1022.2 |
| 20260509020205 | 56 | 275 | 2.0 | 6.0 | 0.00 | 0.00 | 0.00 | 74 | 1022.3 |
| 20260509015706 | 56 | 264 | 2.0 | 3.0 | 0.00 | 0.00 | 0.00 | 74 | 1022.2 |
| 20260509015205 | 56 | 271 | 2.0 | 3.0 | 0.00 | 0.00 | 0.00 | 74 | 1022.2 |
| 20260509014704 | 56 | 279 | 2.0 | 3.0 | 0.00 | 0.00 | 0.00 | 74 | 1022.2 |
| 20260509014204 | 56 | 279 | 3.0 | 7.0 | 0.00 | 0.00 | 0.00 | 73 | 1022.2 |
| 20260509013706 | 56 | 285 | 3.0 | 9.0 | 0.00 | 0.00 | 0.00 | 73 | 1022.2 |
| 20260509013204 | 56 | 290 | 5.0 | 8.0 | 0.00 | 0.00 | 0.00 | 72 | 1022.2 |
| 20260509012704 | 56 | 278 | 4.0 | 8.0 | 0.00 | 0.00 | 0.00 | 72 | 1022.2 |
| 20260509012205 | 57 | 303 | 6.0 | 9.0 | 0.00 | 0.00 | 0.00 | 71 | 1022.1 |
| 20260509011704 | 57 | 298 | 6.0 | 9.0 | 0.00 | 0.00 | 0.00 | 70 | 1022.1 |
| 20260509011204 | 57 | 277 | 6.0 | 10.0 | 0.00 | 0.00 | 0.00 | 71 | 1022.1 |
| 20260509010704 | 57 | 296 | 5.0 | 10.0 | 0.00 | 0.00 | 0.00 | 71 | 1022.2 |
| 20260509004705 | 57 | 262 | 3.0 | 7.0 | 0.00 | 0.00 | 0.00 | 71 | 1022.2 |
| 20260509004205 | 57 | 242 | 4.0 | 7.0 | 0.00 | 0.00 | 0.00 | 71 | 1022.2 |
| 20260509003705 | 57 | 255 | 5.0 | 7.0 | 0.00 | 0.00 | 0.00 | 71 | 1022.2 |
| 20260509003204 | 57 | 260 | 3.0 | 7.0 | 0.00 | 0.00 | 0.00 | 72 | 1022.2 |
| 20260509002704 | 57 | 262 | 4.0 | 7.0 | 0.00 | 0.00 | 0.00 | 73 | 1022.2 |
| 20260509002204 | 57 | 285 | 2.0 | 7.0 | 0.00 | 0.00 | 0.00 | 73 | 1022.2 |
| 20260509001704 | 57 | 305 | 5.0 | 8.0 | 0.00 | 0.00 | 0.00 | 72 | 1022.2 |
| 20260509001205 | 57 | 287 | 5.0 | 8.0 | 0.00 | 0.00 | 0.00 | 71 | 1022.2 |
| 20260509000704 | 57 | 275 | 5.0 | 8.0 | 0.00 | 0.00 | 0.00 | 71 | 1022.2 |
| 20260509000204 | 57 | 258 | 5.0 | 7.0 | 0.00 | 0.00 | 0.00 | 71 | 1022.2 |
| 20260508235204 | 57 | 273 | 3.0 | 9.0 | 0.00 | 0.00 | 0.00 | 72 | 1022.2 |
| 20260508234704 | 57 | 285 | 5.0 | 9.0 | 0.00 | 0.00 | 0.00 | 72 | 1022.2 |
| 20260508234204 | 57 | 295 | 5.0 | 9.0 | 0.00 | 0.00 | 0.00 | 71 | 1022.2 |
| 20260508233704 | 57 | 301 | 4.0 | 6.0 | 0.00 | 0.00 | 0.00 | 71 | 1022.2 |